TimeADT,TemperatureF,Dew PointF,Humidity,Sea Level PressureIn,VisibilityMPH,Wind Direction,Wind SpeedMPH,Gust SpeedMPH,PrecipitationIn,Events,Conditions,WindDirDegrees,DateUTC
12:00 AM,42.8,37.4,81,29.93,15.0,West,6.9,-,N/A,,Mostly Cloudy,260,2012-10-18 03:00:00
1:00 AM,42.8,39.2,87,29.94,15.0,West,5.8,-,N/A,,Mostly Cloudy,260,2012-10-18 04:00:00
2:00 AM,42.8,39.2,87,29.95,15.0,West,6.9,-,N/A,,Overcast,280,2012-10-18 05:00:00
3:00 AM,43,39,81,29.97,15,West,4.6,,,,Overcast,270,2012-10-18 06:00:00
3:00 AM,42.8,39.2,87,29.96,15.0,West,5.8,-,N/A,,Overcast,270,2012-10-18 06:00:00
4:00 AM,42.8,39.2,87,29.98,15.0,West,6.9,-,N/A,,Overcast,260,2012-10-18 07:00:00
5:00 AM,42.8,39.2,87,30.01,15.0,West,6.9,-,N/A,,Overcast,260,2012-10-18 08:00:00
6:00 AM,42.8,39.2,87,30.04,15.0,West,6.9,-,N/A,,Overcast,270,2012-10-18 09:00:00
7:00 AM,42.8,39.2,87,30.06,15.0,WNW,6.9,-,N/A,,Overcast,290,2012-10-18 10:00:00
8:00 AM,42.8,37.4,81,30.09,15.0,WNW,6.9,-,N/A,,Overcast,290,2012-10-18 11:00:00
9:00 AM,44,38,74,30.12,15,WNW,6.9,,,,Mostly Cloudy,290,2012-10-18 12:00:00
9:00 AM,42.8,39.2,87,30.12,15.0,WNW,6.9,-,N/A,,Mostly Cloudy,300,2012-10-18 12:00:00
10:00 AM,44.6,39.2,81,30.13,15.0,West,5.8,-,N/A,,Mostly Cloudy,270,2012-10-18 13:00:00
11:00 AM,46.4,39.2,76,30.15,15.0,West,5.8,-,N/A,,Mostly Cloudy,280,2012-10-18 14:00:00
12:00 PM,50.0,39.2,66,30.15,15.0,NNW,5.8,-,N/A,,Mostly Cloudy,340,2012-10-18 15:00:00
1:00 PM,50.0,39.2,66,30.15,15.0,West,5.8,-,N/A,,Mostly Cloudy,280,2012-10-18 16:00:00
2:00 PM,51.8,39.2,62,30.15,15.0,West,5.8,-,N/A,,Scattered Clouds,280,2012-10-18 17:00:00
3:00 PM,52,41,57,30.16,15,North,5.8,,,,Scattered Clouds,10,2012-10-18 18:00:00
3:00 PM,51.8,41.0,67,30.16,15.0,North,6.9,-,N/A,,Scattered Clouds,360,2012-10-18 18:00:00
5:00 PM,50.0,42.8,76,30.18,15.0,ESE,5.8,-,N/A,,Scattered Clouds,110,2012-10-18 20:00:00
6:00 PM,46.4,41.0,81,30.19,15.0,West,3.5,-,N/A,,Scattered Clouds,280,2012-10-18 21:00:00
7:00 PM,42.8,39.2,87,30.19,15.0,Calm,Calm,-,N/A,,Scattered Clouds,0,2012-10-18 22:00:00
8:00 PM,41.0,39.2,93,30.20,15.0,East,2.3,-,N/A,,Scattered Clouds,100,2012-10-18 23:00:00
9:00 PM,42.8,41.0,93,30.22,15.0,SSE,3.5,-,N/A,,Scattered Clouds,160,2012-10-19 00:00:00
10:00 PM,41.0,41.0,100,30.23,15.0,South,3.5,-,N/A,,Scattered Clouds,170,2012-10-19 01:00:00
11:00 PM,41.0,41.0,100,30.23,15.0,SE,3.5,-,N/A,,Scattered Clouds,140,2012-10-19 02:00:00